Location: Saratoga Springs
(43.0831°N, 73.7850°W)
Time: 11:53:11
(UTC-04:00)

Vanguard 3 - Pass Details

Date: 26 April 2024
Orbit: 509 x 3233 km, 33.3° (Epoch: 23 May)

Event Time Altitude Azimuth Distance (km) Brightness Sun altitude
Exits shadow 04:17:42 19° 239° (WSW) 4,952 10.5 -16.4°
Maximum altitude 04:30:02 53° 175° (S) 2,630 9.5 -14.6°
Drops below altitude 10° 04:40:03 10° 102° (ESE) 3,743 11.2 -13.1°
Sets 04:42:36 0° 97° (E) 4,424 11.8 -12.7°
